Terminal Aerodrome Forecast
Issued by NWS Wilmington, OH

Current Version | Previous Version | Graphics & Text | Print | Product List | Glossary On
Versions: 1 2 3 4 5 6 7 8 9 10 11 12 13 14 15 16 17 18 19
000
FTUS41 KILN 010400 AAA
TAFCMH
TAF AMD
KCMH 010441Z 0105/0124 11006KT 1 1/2SM -SN OVC015
     FM010800 14005KT 2SM -SN BR OVC015
     FM011400 19005KT 2SM -SN OVC008
      TEMPO 0115/0119 1SM -SNRA BR
     FM011900 25006KT 4SM -SNRA OVC008
      TEMPO 0122/0124 1SM -SN=

USA.gov is the U.S. government's official web portal to all federal, state and local government web resources and services.